Weather reports worldwide

Advertisment
Herstmonceux, United Kingdom (3882): temperature & dewpoint: 15.11.2017 13:00:00 - 21.11.2017 13:00:00 (GMT)Herstmonceux, United Kingdom (3882): wind speed: 15.11.2017 13:00:00 - 21.11.2017 13:00:00 (GMT)Herstmonceux, United Kingdom (3882): wind direction: 15.11.2017 13:00:00 - 21.11.2017 13:00:00 (GMT)Herstmonceux, United Kingdom (3882): reduced air pressure: 15.11.2017 13:00:00 - 21.11.2017 13:00:00 (GMT)Herstmonceux, United Kingdom (3882): visibility: 15.11.2017 13:00:00 - 21.11.2017 13:00:00 (GMT)Herstmonceux, United Kingdom (3882): sunshine duration: 15.11.2017 13:00:00 - 21.11.2017 13:00:00 (GMT)Herstmonceux, United Kingdom (3882): precipitation: 15.11.2017 13:00:00 - 21.11.2017 13:00:00 (GMT)
Date & Time tt [°C] td [°C] ff [km/h] ff [kn] dd ppp [hPa] vv [km] sd [min] rr [mm]
21.11.2017 13:00:00 13,1 10,2 15 8 W 1011,6 15 0 0,0
21.11.2017 12:00:00 13,5 10,3 16 9 WSW 1012,4 20 0 0,0
21.11.2017 11:00:00 13,6 10,2 15 8 WSW 1012,9 19 0 0,0
21.11.2017 10:00:00 12,9 10,4 13 7 WSW 1013,0 25 0 -
21.11.2017 09:00:00 12,5 9,9 11 6 WSW 1013,3 14 0 0,0
21.11.2017 08:00:00 12,1 9,9 11 6 WSW 1013,2 14 0 0,0
21.11.2017 07:00:00 12,0 10,0 13 7 W 1013,0 16 0 0,0
21.11.2017 06:00:00 12,0 10,7 13 7 W 1013,1 12 0 0,0
21.11.2017 05:00:00 12,2 10,7 11 6 W 1013,5 12 0 0,0
21.11.2017 04:00:00 12,4 10,7 16 9 W 1013,7 10 0 0,0
21.11.2017 03:00:00 12,4 10,8 18 10 W 1013,6 11 0 0,0
21.11.2017 02:00:00 12,2 10,9 15 8 W 1014,0 10 0 0,0
21.11.2017 01:00:00 12,3 11,0 16 9 W 1014,1 11 0 0,0
21.11.2017 00:00:00 12,3 10,8 18 10 W 1014,3 14 - 0,0
20.11.2017 23:00:00 12,2 11,0 16 9 W 1014,4 9 0 0,0
20.11.2017 22:00:00 12,2 11,2 16 9 W 1014,3 9 0 0,0
20.11.2017 21:00:00 11,9 11,3 15 8 W 1014,5 10 0 0,0
20.11.2017 20:00:00 12,0 11,3 16 9 W 1014,5 9 0 0,0
20.11.2017 19:00:00 11,8 11,3 18 10 W 1014,4 11 0 0,0
20.11.2017 18:00:00 11,7 11,3 18 10 W 1014,1 4,2 0 0,8
20.11.2017 17:00:00 11,8 11,3 18 10 W 1014,1 3,3 0 1,0
20.11.2017 16:00:00 11,8 11,2 18 10 W 1014,3 10 0 -
20.11.2017 15:00:00 11,7 11,2 16 9 W 1014,6 9 0 0,2
20.11.2017 14:00:00 12,1 10,5 22 12 W 1014,9 5 0 0,0
20.11.2017 13:00:00 12,6 10,4 21 11 W 1015,3 13 0 0,0
20.11.2017 12:00:00 12,5 10,1 21 11 W 1016,0 14 0 0,0
20.11.2017 11:00:00 12,0 9,4 21 11 W 1017,0 20 0 0,0
20.11.2017 10:00:00 10,9 9,6 13 7 W 1017,4 14 0 0,0
20.11.2017 09:00:00 10,0 9,7 8 4 WSW 1017,8 12 0 0,0
20.11.2017 08:00:00 9,6 9,1 9 5 W 1018,1 7 0 0,8
20.11.2017 07:00:00 9,9 9,4 11 6 W 1018,3 15 0 0,2
20.11.2017 06:00:00 9,9 9,9 5 3 W 1018,7 8 0 -
20.11.2017 05:00:00 7,9 7,8 5 3 WSW 1019,2 4,3 0 0,4
20.11.2017 04:00:00 5,5 5,3 4 2 SW 1019,7 19 0 0,0
20.11.2017 03:00:00 3,2 2,7 2 1 SE 1020,7 13 0 0,0
20.11.2017 02:00:00 2,3 2,1 4 2 E 1021,8 10 0 0,0
20.11.2017 01:00:00 1,2 0,9 4 2 E 1022,7 9 0 0,0
20.11.2017 00:00:00 0,4 -0,1 4 2 E 1023,6 7 - 0,0
19.11.2017 23:00:00 0,8 0,3 4 2 ENE 1024,2 6 0 0,0
19.11.2017 22:00:00 0,9 -0,1 2 1 ENE 1024,5 7 0 0,0
19.11.2017 21:00:00 1,4 0,0 2 1 N 1024,5 10 0 0,0
19.11.2017 20:00:00 2,1 0,9 4 2 WNW 1024,4 22 0 0,0
19.11.2017 19:00:00 2,4 -0,4 4 2 WSW 1024,5 17 0 0,0
19.11.2017 18:00:00 4,6 1,2 4 2 WNW 1024,4 30 0 0,0
19.11.2017 17:00:00 4,6 0,9 5 3 W 1024,5 29 0 0,0
19.11.2017 16:00:00 6,0 1,0 4 2 W 1024,0 40 42 0,0
19.11.2017 15:00:00 8,3 1,9 5 3 W 1024,1 28 60 0,0
19.11.2017 14:00:00 8,5 2,6 4 2 WNW 1024,0 30 60 0,0
19.11.2017 13:00:00 7,3 2,5 5 3 NW 1024,3 27 60 0,0
19.11.2017 12:00:00 6,1 1,7 8 4 NNW 1024,5 30 48 0,0
19.11.2017 11:00:00 5,2 2,8 8 4 N 1024,3 18 36 0,0
19.11.2017 10:00:00 3,9 3,0 5 3 NNW 1024,2 30 0 0,0
19.11.2017 09:00:00 2,2 1,8 5 3 W 1023,9 12 0 0,0
19.11.2017 08:00:00 2,4 1,9 5 3 NW 1023,2 17 0 -
19.11.2017 07:00:00 2,9 2,4 8 4 NW 1022,7 13 0 0,0
19.11.2017 06:00:00 3,2 2,7 8 4 NW 1022,3 11 0 0,0
19.11.2017 05:00:00 3,4 3,0 9 5 NW 1022,0 19 0 0,0
19.11.2017 04:00:00 3,6 2,9 4 2 WNW 1022,0 11 0 0,0
19.11.2017 03:00:00 4,2 3,6 5 3 NW 1021,7 13 0 0,0
19.11.2017 02:00:00 5,1 4,3 8 4 NW 1021,3 16 0 0,0
19.11.2017 01:00:00 5,7 4,9 8 4 NNW 1021,1 16 0 0,0
19.11.2017 00:00:00 6,4 5,6 8 4 NW 1020,8 17 - 0,2
18.11.2017 23:00:00 6,7 6,3 8 4 NW 1020,8 12 0 0,0
18.11.2017 22:00:00 6,8 6,4 8 4 NNW 1020,8 11 0 0,0
18.11.2017 21:00:00 7,0 6,6 9 5 NW 1020,8 8 0 0,8
18.11.2017 20:00:00 7,3 6,7 11 6 NNE 1020,7 10 0 0,2
18.11.2017 19:00:00 9,6 9,2 9 5 N 1020,2 3,3 0 0,2
18.11.2017 18:00:00 9,9 9,1 11 6 W 1020,0 6 0 0,0
18.11.2017 17:00:00 9,7 9,0 13 7 W 1020,3 15 0 0,0
18.11.2017 16:00:00 9,3 8,9 9 5 W 1020,6 8 0 0,8
18.11.2017 15:00:00 9,3 8,8 13 7 W 1021,1 9 0 0,6
18.11.2017 14:00:00 9,1 8,9 15 8 W 1021,7 12 0 0,8
18.11.2017 13:00:00 8,5 8,1 13 7 W 1022,5 2,0 0 0,8
18.11.2017 12:00:00 8,5 7,3 11 6 W 1023,5 6 0 0,0
18.11.2017 11:00:00 8,0 5,6 8 4 W 1024,1 22 6 0,0
18.11.2017 10:00:00 6,5 4,6 5 3 WNW 1024,7 24 0 0,0
18.11.2017 09:00:00 4,3 2,6 9 5 W 1024,7 19 0 0,0
18.11.2017 08:00:00 2,9 1,2 4 2 W 1025,1 19 0 0,0
18.11.2017 07:00:00 2,2 0,3 5 3 W 1025,0 17 0 0,0
18.11.2017 06:00:00 2,8 0,5 5 3 NW 1025,4 21 0 0,0
18.11.2017 05:00:00 3,6 1,1 5 3 NW 1025,4 20 0 0,0
18.11.2017 04:00:00 2,5 0,7 4 2 W 1025,7 13 0 0,0
18.11.2017 03:00:00 2,1 0,9 5 3 NW 1026,3 14 0 0,0
18.11.2017 02:00:00 2,0 0,0 5 3 NW 1026,9 17 0 0,0
18.11.2017 01:00:00 1,8 -0,1 5 3 NW 1027,4 16 0 0,0
18.11.2017 00:00:00 2,5 0,3 8 4 WNW 1027,8 15 - 0,0
17.11.2017 23:00:00 1,9 0,4 5 3 WNW 1027,8 16 0 0,0
17.11.2017 22:00:00 1,5 -1,5 0 0 N 1028,2 14 0 0,0
17.11.2017 21:00:00 3,5 1,2 8 4 NNW 1028,3 21 0 0,0
17.11.2017 20:00:00 2,3 0,0 4 2 N 1028,3 12 0 0,0
17.11.2017 19:00:00 3,2 -0,2 4 2 S 1028,1 12 0 0,0
17.11.2017 18:00:00 4,2 -0,2 5 3 NNW 1028,6 13 0 0,0
17.11.2017 17:00:00 4,5 -0,8 4 2 N 1028,5 23 0 0,0
17.11.2017 16:00:00 7,5 -1,0 4 2 NNE 1028,3 35 48 0,0
17.11.2017 15:00:00 9,4 -1,4 4 2 NNE 1028,4 35 60 0,0
17.11.2017 14:00:00 9,8 -1,3 5 3 N 1028,6 26 60 0,0
17.11.2017 13:00:00 9,7 -0,7 8 4 NNE 1029,3 30 60 0,0
17.11.2017 12:00:00 9,0 -0,2 9 5 NNE 1029,4 25 60 0,0
17.11.2017 11:00:00 8,5 1,4 9 5 NNE 1029,6 35 54 0,0
17.11.2017 10:00:00 6,1 1,8 8 4 NNE 1029,7 18 0 0,0
17.11.2017 09:00:00 3,5 1,5 5 3 NNE 1029,9 22 0 0,0
17.11.2017 08:00:00 3,0 0,9 5 3 NNE 1029,6 20 0 0,0
17.11.2017 07:00:00 3,6 1,2 11 6 NNE 1029,2 22 0 0,0
17.11.2017 06:00:00 4,0 0,9 9 5 NNE 1029,0 28 0 -
17.11.2017 05:00:00 4,2 1,2 9 5 NNE 1028,9 23 0 0,0
17.11.2017 04:00:00 4,7 1,4 9 5 NNE 1028,6 30 0 0,0
17.11.2017 03:00:00 5,3 1,8 9 5 NNE 1028,3 25 0 0,0
17.11.2017 02:00:00 6,7 2,6 9 5 NNE 1028,2 27 0 0,0
17.11.2017 01:00:00 7,4 2,8 11 6 NNE 1027,9 35 0 0,0
17.11.2017 00:00:00 8,5 5,0 8 4 NNE 1027,4 30 - 0,0
16.11.2017 23:00:00 9,0 4,5 11 6 NNE 1026,8 35 0 0,0
16.11.2017 22:00:00 9,1 4,7 11 6 NNE 1026,6 45 0 0,0
16.11.2017 21:00:00 9,4 6,1 11 6 NNE 1026,1 35 0 0,0
16.11.2017 20:00:00 10,5 7,3 13 7 NNE 1025,5 45 0 0,0
16.11.2017 19:00:00 10,6 9,1 8 4 N 1024,7 11 0 0,0
16.11.2017 18:00:00 10,2 9,2 4 2 WNW 1024,1 11 0 0,0
16.11.2017 17:00:00 10,8 9,2 5 3 W 1023,5 16 0 0,0
16.11.2017 16:00:00 12,0 9,2 8 4 W 1023,1 27 36 0,0
16.11.2017 15:00:00 12,8 9,8 8 4 W 1022,8 27 0 0,0
16.11.2017 14:00:00 12,8 10,0 9 5 W 1022,9 30 0 0,0
16.11.2017 13:00:00 12,7 10,5 9 5 WSW 1022,7 26 0 0,0
16.11.2017 12:00:00 11,8 11,4 5 3 W 1023,0 13 0 0,0
16.11.2017 11:00:00 11,2 11,2 5 3 W 1023,3 7 0 0,0
16.11.2017 10:00:00 9,9 9,9 0 0 N 1023,4 4,4 0 0,0
16.11.2017 09:00:00 9,7 9,7 2 1 SW 1023,1 3,4 0 0,0
16.11.2017 08:00:00 9,9 9,9 4 2 NW 1022,9 8 0 0,0
16.11.2017 07:00:00 8,0 7,9 4 2 NE 1022,3 0,4 0 0,0
16.11.2017 06:00:00 8,4 8,4 2 1 NW 1022,2 2,6 0 0,0
16.11.2017 05:00:00 8,5 8,4 4 2 SW 1022,0 0,1 0 0,0
16.11.2017 04:00:00 9,4 9,3 2 1 WSW 1021,9 1,0 0 0,0
16.11.2017 03:00:00 9,4 9,3 2 1 W 1022,7 2,6 0 0,0
16.11.2017 02:00:00 9,2 9,2 2 1 W 1023,1 1,3 0 0,0
16.11.2017 01:00:00 9,1 8,9 2 1 SSE 1023,2 0,4 0 0,0
16.11.2017 00:00:00 9,3 9,0 2 1 WSW 1023,6 1,3 - 0,0
15.11.2017 23:00:00 9,8 9,4 4 2 NNE 1023,5 0,7 0 0,0
15.11.2017 22:00:00 10,0 9,6 2 1 E 1023,4 1,9 0 0,0
15.11.2017 21:00:00 10,4 10,0 2 1 N 1023,8 2,7 0 0,0
15.11.2017 20:00:00 10,8 10,4 4 2 NW 1024,0 4,6 0 0,0
15.11.2017 19:00:00 10,8 10,3 2 1 N 1024,1 5 0 -
15.11.2017 18:00:00 10,9 10,2 2 1 NE 1024,1 6 0 0,0
15.11.2017 17:00:00 11,4 10,7 2 1 W 1024,1 11 0 0,0
15.11.2017 16:00:00 11,6 10,9 4 2 N 1024,1 12 0 0,0
15.11.2017 15:00:00 12,1 10,9 4 2 NE 1023,9 5 0 0,0
15.11.2017 14:00:00 12,6 10,8 4 2 WNW 1024,4 35 0 0,0
15.11.2017 13:00:00 12,8 10,8 4 2 SW 1024,3 29 6 0,0

tt = temperature
td = dewpoint
ff = wind speed
dd = wind direction
ppp = reduced air pressure
vv = visibility
sd = sunshine duration
rr = precipitation

Next stations